[[{"header":{"parameterUnit":"m.s-1","parameterCategory":1,"la1":30.2991,"la2":30.254,"lo1":-89.0895,"lo2":-89.0444,"dy":0.0017,"dx":0.0017,"nx":28,"ny":28,"refTime":"2024-04-02T09:00:00:Z","depth":0,"parameterNumber":2,"parameterNumberName":"U-component_of_WINDS"},"data":[0,0,0,0,0,0,0,0,0,0,0,0,0,0,0,0,0,0,0,0,0,0,0,0,0,0,0,0,0,0,0,0,0,0,0,0,0,0,0,0,0,0,0,0,0,0,0,0,0,0,0,0,0,0,0,0,0,0,5.3944,5.3947,0,5.4155,5.4158,5.416,5.4109,5.4105,5.4101,5.4097,5.4318,5.4327,5.4337,0,0,0,0,0,0,0,0,0,0,0,0,0,5.3502,5.3511,5.3944,5.3947,5.3949,5.4155,5.4158,5.4161,5.411,5.4105,5.41,5.4096,5.4315,5.4326,5.4338,0,0,0,0,0,0,0,0,0,0,0,0,0,5.3702,5.3513,5.3944,5.3949,5.3951,5.4154,5.4158,5.4161,5.4111,5.4105,5.4099,5.4093,5.4311,5.4325,5.4339,5.4551,0,0,5.4384,5.439,0,0,0,0,0,0,0,0,5.3691,5.3718,5.3945,5.3949,5.3952,5.41,5.4083,5.4292,5.4113,5.4051,5.4097,5.409,5.4251,5.427,5.4323,5.4561,5.4571,5.4385,5.4394,5.44,5.4404,0,0,0,0,0,0,0,5.3677,5.3709,5.4028,5.3949,5.3953,5.3942,5.3964,5.4122,5.4183,5.4056,5.4052,5.4078,5.4251,5.4309,5.4327,5.4574,5.4384,5.4397,5.4406,5.4412,5.4999,5.5006,0,0,0,0,0,0,5.366,5.3698,5.4021,5.4034,5.3804,5.3955,5.3979,5.4059,5.4181,5.4193,5.4083,5.4075,5.4287,5.4311,5.4335,5.4592,5.44,5.4413,5.4422,5.4992,5.5001,5.5008,0,0,0,0,0,0,5.365,5.3689,5.4012,5.3865,5.3905,5.3969,5.4059,5.4066,5.4123,5.4201,5.4212,5.413,5.4283,5.4315,5.4498,5.4599,5.442,5.4433,5.4984,5.4995,5.5004,5.5107,0,0,0,0,0,0,5.3638,5.3686,5.3766,5.3867,5.3914,5.4171,5.4065,5.4074,5.4148,5.4139,5.4249,5.4261,5.4281,5.4476,5.4512,5.4616,5.4444,5.4975,5.4989,5.5001,5.5095,5.512,5.5141,0,0,0,0,0,5.3622,5.3787,5.377,5.381,5.4015,5.4176,5.4203,5.4221,5.4156,5.4238,5.4288,5.4257,5.4582,5.4496,5.4536,5.4645,5.4969,5.4985,5.5,5.5085,5.5115,5.514,0,0,0,0,0,0,5.3697,5.38,5.3783,5.3985,5.4072,5.4167,5.4271,5.4253,5.4361,5.4349,5.4368,5.4393,5.458,5.4631,5.4533,5.4857,5.4766,5.4791,5.4817,5.4846,5.4869,5.4853,5.4456,0,0,0,0,0,5.3737,5.3858,5.3943,5.4113,5.4157,5.4207,5.4278,5.4285,5.4376,5.4414,5.4477,5.4568,5.4691,5.4771,5.4889,5.5102,5.5126,5.5197,5.522,5.5238,5.5259,5.5377,5.541,5.5059,5.5059,5.5059,0,0,5.3821,5.3892,5.3968,5.413,5.4198,5.4325,5.4238,5.4376,5.4471,5.4435,5.4611,5.4662,5.4765,5.4965,5.5056,5.5012,5.5362,5.5258,5.5272,5.5283,5.5397,5.543,5.5459,5.507,5.5068,5.5066,0,0,5.4039,5.4104,5.4254,5.4324,5.4428,5.446,5.4496,5.4595,5.4627,5.4804,5.478,5.4894,5.5104,5.5179,5.5245,5.5493,5.5469,5.553,5.565,5.5765,5.5793,5.5817,5.5907,5.5938,5.5551,5.5551,5.5551,0,5.413,5.4319,5.4333,5.4474,5.4546,5.4518,5.4671,5.4739,5.4877,5.4928,5.4878,5.5142,5.521,5.5427,5.5487,5.5541,5.5584,5.5518,5.5787,5.5812,5.5835,5.5921,5.5954,5.5558,5.5557,5.5556,5.5556,0,5.4426,5.4558,5.4666,5.4799,5.4884,5.503,5.5068,5.5153,5.5152,5.519,5.5372,5.5453,5.5586,5.5638,5.5639,5.5856,5.5826,5.5782,5.5691,5.5875,5.5956,5.5989,5.5568,5.5565,5.5563,5.5562,0,0,5.4697,5.4836,5.4876,5.4936,5.5049,5.5152,5.5297,5.5427,5.5499,5.5596,5.5719,5.5898,5.5858,5.5933,5.5942,5.6043,5.6235,5.5986,5.5989,5.603,5.6481,5.6514,5.6551,5.622,5.6226,5.6231,5.6472,0,5.4925,5.5179,5.5197,5.5428,5.555,5.5526,5.5653,5.5737,5.5777,5.5888,5.5932,5.6059,5.5996,5.6041,5.6139,5.6191,5.6326,5.6174,5.6337,5.6342,5.6311,5.6593,5.6629,5.6852,5.6504,5.6509,5.6513,0,5.5225,5.5329,5.5571,5.5668,5.5721,5.5834,5.5954,5.606,5.6156,5.6178,5.6262,5.6258,5.641,5.6313,5.6523,5.6419,5.6487,5.6522,5.6532,5.6548,5.6439,5.6618,5.6924,5.6958,5.6563,5.6559,5.6555,0,5.5399,5.56,5.5771,5.5823,5.5941,5.6021,5.6074,5.6164,5.6241,5.6347,5.6397,5.652,5.6587,5.6683,5.6714,5.664,5.6923,5.6829,5.6946,5.6946,5.7007,5.7003,5.7329,5.705,5.705,5.7049,5.7048,0,5.5652,5.5801,5.585,5.5956,5.6123,5.6143,5.6309,5.6357,5.6438,5.6553,5.6541,5.665,5.6683,5.6799,5.6823,5.6994,5.7024,5.7047,5.7052,5.7049,5.7046,5.7094,5.7079,5.7058,5.7056,5.7054,5.7053,0,5.5874,5.5913,5.6098,5.6194,5.6221,5.6341,5.6423,5.6526,5.6563,5.671,5.6746,5.6806,5.6942,5.6981,5.7144,5.7161,5.7361,5.7352,5.7328,5.7329,5.7445,5.7433,5.7813,5.7864,5.7552,5.7555,5.7557,0,5.6033,5.6147,5.6255,5.6331,5.6387,5.6509,5.6587,5.6613,5.6695,5.6813,5.6902,5.7036,5.7144,5.7362,5.7421,5.7546,5.754,5.7665,5.7559,5.7552,5.7543,5.7536,5.7548,5.7685,5.7688,5.7691,5.7693,0,5.6311,5.6325,5.6437,5.6558,5.6651,5.6747,5.6839,5.6903,5.6941,5.7035,5.7172,5.7256,5.7423,5.7556,5.7683,5.7739,5.7724,5.7725,5.7759,5.7757,5.7739,5.7751,5.7383,5.7717,5.7714,5.7713,5.7711,5.771,5.6508,5.6608,5.67,5.6826,5.6898,5.6985,5.7086,5.7136,5.7251,5.7387,5.7395,5.7545,5.764,5.7809,5.7872,5.799,5.7954,5.8003,5.8016,5.8028,5.8037,5.772,5.8014,5.8013,5.8012,5.8012,5.8011,0,5.6786,5.6843,5.6959,5.7088,5.7188,5.7163,5.7264,5.735,5.7481,5.757,5.7676,5.7836,5.7965,5.8035,5.8164,5.8246,5.8242,5.8279,5.8274,5.8287,5.8062,5.802,5.828,5.828,5.828,5.828,5.828,5.828,5.6942,5.7111,5.7136,5.7342,5.7399,5.7544,5.7604,5.7685,5.7756,5.7934,5.8041,5.8085,5.8167,5.8302,5.8421,5.8438,5.8487,5.8528,5.8542,5.833,5.8303,5.8277,5.8237,5.8539,5.8539,5.8757,5.8759,5.876]},{"header":{"parameterUnit":"m.s-1","parameterCategory":1,"la1":30.2991,"la2":30.254,"lo1":-89.0895,"lo2":-89.0444,"dy":0.0017,"dx":0.0017,"nx":28,"ny":28,"refTime":"2024-04-02T09:00:00:Z","depth":0,"parameterNumber":3,"parameterNumberName":"V-component_of_WINDS"},"data":[0,0,0,0,0,0,0,0,0,0,0,0,0,0,0,0,0,0,0,0,0,0,0,0,0,0,0,0,0,0,0,0,0,0,0,0,0,0,0,0,0,0,0,0,0,0,0,0,0,0,0,0,0,0,0,0,0,0,-2.9083,-2.9085,0,-2.927,-2.9273,-2.9275,-2.9258,-2.9255,-2.9252,-2.9249,-2.9447,-2.9455,-2.9463,0,0,0,0,0,0,0,0,0,0,0,0,0,-2.8714,-2.8721,-2.9082,-2.9085,-2.9087,-2.927,-2.9273,-2.9275,-2.9258,-2.9255,-2.9251,-2.9248,-2.9444,-2.9454,-2.9463,0,0,0,0,0,0,0,0,0,0,0,0,0,-2.8886,-2.8724,-2.9082,-2.91,-2.9104,-2.927,-2.9273,-2.9276,-2.9259,-2.9255,-2.925,-2.9246,-2.9441,-2.9453,-2.9465,-2.9626,0,0,-2.9501,-2.9506,0,0,0,0,0,0,0,0,-2.8876,-2.8899,-2.9095,-2.9099,-2.9104,-2.9236,-2.9216,-2.9393,-2.926,-2.92,-2.9249,-2.9244,-2.9381,-2.9397,-2.9442,-2.9635,-2.9643,-2.9502,-2.9509,-2.9515,-2.9518,0,0,0,0,0,0,0,-2.8864,-2.8891,-2.9157,-2.9098,-2.9103,-2.9101,-2.9121,-2.9249,-2.9313,-2.9205,-2.9204,-2.9227,-2.9382,-2.9431,-2.9447,-2.9646,-2.9502,-2.9513,-2.952,-2.9525,-2.9983,-2.9988,0,0,0,0,0,0,-2.8847,-2.8881,-2.9151,-2.9163,-2.8977,-2.9112,-2.9133,-2.9198,-2.9311,-2.9324,-2.923,-2.9225,-2.9413,-2.9433,-2.9454,-2.9651,-2.9515,-2.9526,-2.9533,-2.9978,-2.9984,-2.9989,0,0,0,0,0,0,-2.8839,-2.8871,-2.9143,-2.9022,-2.9056,-2.9122,-2.9195,-2.9204,-2.9253,-2.933,-2.9342,-2.9268,-2.941,-2.9437,-2.9583,-2.9658,-2.9531,-2.9542,-2.9972,-2.998,-2.9987,-3.0047,0,0,0,0,0,0,-2.8829,-2.8869,-2.8929,-2.9023,-2.9063,-2.9268,-2.92,-2.9211,-2.9273,-2.9268,-2.9369,-2.9381,-2.9409,-2.9565,-2.9595,-2.9672,-2.9551,-2.9966,-2.9975,-2.9984,-3.0038,-3.0055,-3.007,0,0,0,0,0,-2.8816,-2.8939,-2.8932,-2.8965,-2.9139,-2.9272,-2.9295,-2.9323,-2.9279,-2.9341,-2.9391,-2.9378,-2.9644,-2.958,-2.9614,-2.9695,-2.9961,-2.9973,-2.9983,-3.0031,-3.0052,-3.0069,0,0,0,0,0,0,-2.8854,-2.8952,-2.8945,-2.9102,-2.9179,-2.9269,-2.9349,-2.9343,-2.9436,-2.9427,-2.9459,-2.9482,-2.963,-2.9677,-2.9604,-2.9858,-2.9797,-2.9816,-2.9822,-2.9842,-2.9858,-2.9844,-2.9561,0,0,0,0,0,-2.888,-2.8978,-2.9059,-2.919,-2.9229,-2.9282,-2.9341,-2.9355,-2.9437,-2.947,-2.953,-2.9611,-2.9714,-2.978,-2.9879,-3.0045,-3.0068,-3.0117,-3.0133,-3.0146,-3.0162,-3.0255,-3.0279,-3.0026,-3.0026,-3.0026,0,0,-2.8936,-2.9002,-2.9062,-2.9199,-2.926,-2.9363,-2.931,-2.942,-2.9498,-2.9487,-2.9629,-2.9676,-2.9769,-2.9926,-2.9999,-2.997,-3.0237,-3.016,-3.0169,-3.0179,-3.0269,-3.0293,-3.0315,-3.0034,-3.0032,-3.0031,0,0,-2.9091,-2.9149,-2.9266,-2.9328,-2.9421,-2.9455,-2.9483,-2.9575,-2.9606,-2.9748,-2.9743,-2.9836,-3.0011,-3.0078,-3.0135,-3.0316,-3.0308,-3.0347,-3.043,-3.0521,-3.0541,-3.0559,-3.0626,-3.0649,-3.0363,-3.0363,-3.0363,0,-2.915,-2.9302,-2.9327,-2.9439,-2.95,-2.9494,-2.9614,-2.9673,-2.9794,-2.9838,-2.9804,-3.0024,-3.0086,-3.026,-3.0304,-3.035,-3.0385,-3.0336,-3.0535,-3.0554,-3.0571,-3.0635,-3.066,-3.0367,-3.0367,-3.0366,-3.0366,0,-2.9371,-2.9477,-2.956,-2.9676,-2.9746,-2.9862,-2.9906,-2.9975,-2.9983,-3.0023,-3.0169,-3.0243,-3.0357,-3.0399,-3.0409,-3.0575,-3.0555,-3.0528,-3.0468,-3.0599,-3.066,-3.0684,-3.0373,-3.0372,-3.037,-3.0369,0,0,-2.9556,-2.9683,-2.9713,-2.9766,-2.9868,-2.9952,-3.0068,-3.0178,-3.0237,-3.0321,-3.0421,-3.0569,-3.0545,-3.061,-3.0627,-3.0707,-3.0848,-3.0671,-3.0673,-3.0703,-3.1039,-3.106,-3.1088,-3.0843,-3.0848,-3.0852,-3.1032,0,-2.9722,-2.9925,-2.9951,-3.0132,-3.0232,-3.0228,-3.0329,-3.0404,-3.0444,-3.0536,-3.0581,-3.0686,-3.0645,-3.0685,-3.0763,-3.0814,-3.0917,-3.0802,-3.0939,-3.0943,-3.0917,-3.1119,-3.1142,-3.1308,-3.1056,-3.106,-3.1063,0,-2.9944,-3.0032,-3.0223,-3.0313,-3.0356,-3.0446,-3.055,-3.0637,-3.0723,-3.0746,-3.0819,-3.0826,-3.0949,-3.0882,-3.1052,-3.0974,-3.1031,-3.1065,-3.1072,-3.1088,-3.1012,-3.1142,-3.1362,-3.1388,-3.11,-3.1097,-3.1094,0,-3.0062,-3.0229,-3.0365,-3.0411,-3.0518,-3.0582,-3.063,-3.0711,-3.0776,-3.0867,-3.091,-3.1015,-3.1073,-3.1155,-3.1192,-3.1139,-3.1361,-3.1296,-3.1386,-3.1386,-3.1435,-3.1431,-3.1669,-3.1468,-3.1468,-3.1467,-3.1467,0,-3.0247,-3.0364,-3.042,-3.0504,-3.0636,-3.0665,-3.0796,-3.0842,-3.0915,-3.101,-3.1012,-3.1102,-3.1144,-3.124,-3.127,-3.1408,-3.1434,-3.1458,-3.1465,-3.1459,-3.1456,-3.1499,-3.1489,-3.1474,-3.1473,-3.1471,-3.147,0,-3.0402,-3.0443,-3.0592,-3.0681,-3.0706,-3.08,-3.0877,-3.096,-3.0999,-3.1119,-3.1149,-3.1211,-3.1325,-3.1369,-3.1508,-3.1528,-3.1688,-3.1685,-3.1659,-3.1661,-3.1749,-3.1741,-3.2024,-3.2064,-3.1835,-3.1837,-3.1839,0,-3.0517,-3.0608,-3.0706,-3.0769,-3.0819,-3.092,-3.0986,-3.1019,-3.1088,-3.1193,-3.1263,-3.1376,-3.1469,-3.1651,-3.171,-3.1817,-3.1818,-3.1909,-3.1834,-3.1826,-3.1822,-3.1817,-3.1828,-3.1924,-3.1926,-3.1928,-3.193,0,-3.072,-3.0736,-3.083,-3.0932,-3.101,-3.1092,-3.1172,-3.1224,-3.127,-3.1348,-3.1463,-3.1534,-3.1676,-3.179,-3.19,-3.1952,-3.1951,-3.1953,-3.198,-3.1976,-3.1958,-3.1971,-3.1699,-3.1947,-3.1945,-3.1944,-3.1943,-3.1942,-3.0861,-3.0941,-3.1023,-3.1128,-3.1192,-3.1267,-3.1349,-3.1398,-3.1494,-3.1611,-3.1625,-3.175,-3.1835,-3.1983,-3.2039,-3.2139,-3.2115,-3.2154,-3.2164,-3.2173,-3.2181,-3.194,-3.2159,-3.2159,-3.2158,-3.2158,-3.2158,0,-3.1065,-3.1117,-3.1213,-3.1325,-3.1408,-3.1396,-3.1484,-3.1556,-3.1665,-3.1743,-3.1834,-3.1968,-3.2078,-3.2145,-3.2257,-3.2324,-3.2326,-3.2352,-3.2349,-3.2361,-3.2194,-3.2161,-3.2349,-3.2349,-3.2349,-3.2349,-3.2349,-3.2348,-3.1181,-3.1317,-3.1343,-3.1512,-3.1564,-3.1685,-3.1737,-3.1807,-3.187,-3.2019,-3.211,-3.2152,-3.2227,-3.2344,-3.2445,-3.2463,-3.2505,-3.2533,-3.2549,-3.2392,-3.2373,-3.2354,-3.2323,-3.2542,-3.2542,-3.2708,-3.271,-3.2711]}]]